TimeCST,TemperatureF,Dew PointF,Humidity,Sea Level PressureIn,VisibilityMPH,Wind Direction,Wind SpeedMPH,Gust SpeedMPH,PrecipitationIn,Events,Conditions,WindDirDegrees,DateUTC
12:15 AM,41.0,26.6,57,29.90,10.0,SW,10.4,-,N/A,,Overcast,220,2013-11-15 06:15:00
12:35 AM,41.0,24.8,53,29.90,10.0,SSW,9.2,-,N/A,,Overcast,210,2013-11-15 06:35:00
12:55 AM,41.0,24.8,53,29.89,10.0,SW,9.2,-,N/A,,Overcast,230,2013-11-15 06:55:00
1:15 AM,41.0,26.6,57,29.90,10.0,SW,9.2,-,N/A,,Overcast,220,2013-11-15 07:15:00
1:35 AM,41.0,24.8,53,29.90,10.0,SW,10.4,-,N/A,,Overcast,230,2013-11-15 07:35:00
1:55 AM,41.0,26.6,57,29.90,10.0,SW,8.1,-,N/A,,Overcast,220,2013-11-15 07:55:00
2:15 AM,41.0,26.6,57,29.90,10.0,SW,10.4,-,N/A,,Overcast,230,2013-11-15 08:15:00
2:35 AM,41.0,26.6,57,29.89,10.0,WSW,11.5,-,N/A,,Light Drizzle,240,2013-11-15 08:35:00
2:55 AM,42.8,26.6,53,29.89,10.0,SW,12.7,-,N/A,,Overcast,230,2013-11-15 08:55:00
3:15 AM,42.8,26.6,53,29.88,10.0,SW,10.4,-,N/A,,Overcast,230,2013-11-15 09:15:00
3:35 AM,42.8,26.6,53,29.88,10.0,WSW,8.1,-,N/A,,Overcast,240,2013-11-15 09:35:00
3:55 AM,42.8,26.6,53,29.88,10.0,SW,6.9,-,N/A,,Mostly Cloudy,230,2013-11-15 09:55:00
4:15 AM,41.0,26.6,57,29.88,10.0,SSW,8.1,-,N/A,,Overcast,210,2013-11-15 10:15:00
4:35 AM,41.0,26.6,57,29.88,10.0,SSW,6.9,-,N/A,,Overcast,200,2013-11-15 10:35:00
4:55 AM,41.0,26.6,57,29.89,10.0,SW,8.1,-,N/A,,Overcast,220,2013-11-15 10:55:00
5:15 AM,41.0,26.6,57,29.88,10.0,SW,10.4,-,N/A,,Overcast,230,2013-11-15 11:15:00
5:35 AM,41.0,26.6,57,29.89,10.0,SW,8.1,-,N/A,,Overcast,230,2013-11-15 11:35:00
5:55 AM,41.0,26.6,57,29.90,10.0,SW,9.2,-,N/A,,Overcast,220,2013-11-15 11:55:00
6:15 AM,39.2,26.6,61,29.91,10.0,SW,10.4,-,N/A,,Overcast,230,2013-11-15 12:15:00
6:35 AM,39.2,26.6,61,29.91,10.0,SW,9.2,-,N/A,,Mostly Cloudy,220,2013-11-15 12:35:00
6:45 AM,39.2,24.8,56,29.91,10.0,SSW,8.1,-,N/A,,Mostly Cloudy,210,2013-11-15 12:45:00
7:45 AM,39.2,24.8,56,29.92,10.0,SW,8.1,-,N/A,,Mostly Cloudy,220,2013-11-15 13:45:00
8:45 AM,39.2,24.8,56,29.94,10.0,SW,8.1,-,N/A,,Scattered Clouds,220,2013-11-15 14:45:00
9:45 AM,44.6,26.6,49,29.93,10.0,SW,10.4,-,N/A,,Clear,220,2013-11-15 15:45:00
10:45 AM,46.4,26.6,46,29.94,10.0,WSW,6.9,-,N/A,,Clear,240,2013-11-15 16:45:00
11:45 AM,50.0,28.4,43,29.91,10.0,SSW,10.4,-,N/A,,Clear,210,2013-11-15 17:45:00
12:45 PM,53.6,28.4,38,29.90,10.0,SW,8.1,-,N/A,,Clear,230,2013-11-15 18:45:00
1:45 PM,53.6,28.4,38,29.89,10.0,SSW,6.9,-,N/A,,Clear,200,2013-11-15 19:45:00
2:45 PM,53.6,30.2,41,29.89,10.0,SW,8.1,-,N/A,,Clear,220,2013-11-15 20:45:00
3:45 PM,51.8,28.4,41,29.89,10.0,SSW,9.2,-,N/A,,Clear,210,2013-11-15 21:45:00
4:45 PM,48.2,28.4,46,29.90,10.0,SSW,8.1,-,N/A,,Clear,200,2013-11-15 22:45:00
5:45 PM,46.4,30.2,53,29.92,10.0,SSW,6.9,-,N/A,,Clear,200,2013-11-15 23:45:00
6:45 PM,44.6,30.2,57,29.92,10.0,East,9.2,-,N/A,,Clear,100,2013-11-16 00:45:00
7:45 PM,42.8,30.2,61,29.92,10.0,SSW,8.1,-,N/A,,Clear,200,2013-11-16 01:45:00
8:15 PM,41.0,30.2,65,29.92,10.0,SSW,8.1,-,N/A,,Clear,200,2013-11-16 02:15:00
8:35 PM,41.0,32.0,70,29.91,10.0,South,5.8,-,N/A,,Clear,180,2013-11-16 02:35:00
8:45 PM,41.0,30.2,65,29.92,10.0,SSW,6.9,-,N/A,,Clear,200,2013-11-16 02:45:00
8:55 PM,41.0,32.0,70,29.93,10.0,SSW,6.9,-,N/A,,Clear,200,2013-11-16 02:55:00
9:15 PM,41.0,32.0,70,29.94,10.0,SSW,6.9,-,N/A,,Clear,210,2013-11-16 03:15:00
9:35 PM,41.0,32.0,70,29.93,10.0,SSW,5.8,-,N/A,,Clear,200,2013-11-16 03:35:00
9:55 PM,39.2,32.0,75,29.92,10.0,SSW,5.8,-,N/A,,Clear,200,2013-11-16 03:55:00
10:15 PM,39.2,32.0,75,29.92,10.0,SSW,6.9,-,N/A,,Clear,200,2013-11-16 04:15:00
10:35 PM,39.2,32.0,75,29.92,10.0,South,6.9,-,N/A,,Clear,190,2013-11-16 04:35:00
10:55 PM,37.4,32.0,81,29.91,10.0,SSW,4.6,-,N/A,,Clear,200,2013-11-16 04:55:00
11:15 PM,37.4,32.0,81,29.91,10.0,South,5.8,-,N/A,,Clear,180,2013-11-16 05:15:00
11:35 PM,37.4,32.0,81,29.91,10.0,South,8.1,-,N/A,,Clear,180,2013-11-16 05:35:00
11:55 PM,37.4,32.0,81,29.90,10.0,South,6.9,-,N/A,,Clear,190,2013-11-16 05:55:00